Location: Arrington
(35.8681°N, 86.7092°W)
Time: 06:46:07
(UTC+00:00)

STARLINK 1053 - Pass Details

Date: 23 November 2019
Orbit: 418 x 420 km, 53.0° (Epoch: 05 December)

Event Time Altitude Azimuth Distance (km) Brightness Sun altitude
Exits shadow 11:18:32 19° 237° (WSW) 1,063 4.7 -14.6°
Maximum altitude 11:20:46 68° 317° (NW) 452 2.9 -14.2°
Drops below altitude 10° 11:24:07 10° 41° (NE) 1,499 6.2 -13.5°
Sets 11:26:14 0° 44° (NE) 2,368 7.3 -13.1°
